2019-093D (44882 NORAD) Tracking and Keplerian Element Data

This shows tracking and keplerian element data for the satellite.

Feedback or suggestion? Click here.




ElementValue
Catalog44882
Name2019-093D
Epoch Orbit1465
Epoch Day88.13642155
Epoch Year2020
RAAN164.7598
Inclination97.9666
Eccentricity0.0015026
Argument of Perigee306.7585
Mean Anonmoly53.2251
Mean Motion14.81461345
Decay Rate2.27E-06
L11 44882U 19093D 20088.13642155 .00000227 00000-0 35849-4 0 9997
L22 44882 97.9666 164.7598 0015026 306.7585 53.2251 14.81461345 14650

Live tracking and technical data element details for 2019-093D (NORAD 44882). 2019-093D can be tracked NOW for your location showing map with azimuth and elevation plus other details from your city location.

Track the satellite on the map from your city or location and see movement details for azimuth, elevation, latitude, longitude, range, height, and movement on the map or in text.







IsCatalogInMostPopularTable: catalog: 44882, numindb: 30
Update: records affected: 1



GetName: 44882 2019-093D

Hit Count: updated at: Sat, 28 Mar 2020 20:04:32 GMT